Location: *
(2.7500°S, 66.6833°W)
Time: 09:12:21
(UTC+00:00)

Daily predictions for brighter satellites

Satellite Brightness Start Highest point End
(mag) Time Altitude Azimuth Time Altitude Azimuth Time Altitude Azimuth
CZ-4B R/B 4.0 22:41:36 10° SSE 22:45:51 66° ENE 22:50:04 10° N
Meteor 2-15 4.5 22:42:52 10° N 22:48:50 65° E 22:54:52 10° SSE
Meteor 1-31 Rocket 2.6 22:46:49 10° SSE 22:50:36 81° ENE 22:54:19 10° N
Cosmos 2298 Rocket 4.3 22:46:28 10° N 22:51:35 50° ENE 22:56:43 10° SSE
Cosmos 1867 3.7 22:48:22 10° NNW 22:53:45 80° WSW 22:59:09 10° SSE
SWIFT 3.1 22:50:36 10° NW 22:54:19 38° NNE 22:58:02 10° E
Cosmos 1238 Rocket 3.3 22:50:34 10° S 22:55:09 79° E 23:00:26 10° N
Ariane 44P Rocket 1.0 22:52:52 10° W 22:55:21 76° S 22:57:19 12° E
DELTA 2 R/B (1) 3.6 22:53:07 10° SW 22:58:44 82° SE 23:04:20 10° NE
ADEOS Rocket 3.3 22:55:12 10° SSE 23:00:34 43° ENE 23:06:21 10° N
Cosmos-2242 3.7 22:58:19 10° SSE 23:02:00 30° E 23:05:40 10° NNE
Intelsat 5-3 Rocket 3.6 23:02:22 10° N 23:04:07 16° NE 23:06:15 11° ENE
Cosmos 972 4.4 23:04:06 10° S 23:09:26 73° E 23:14:21 10° NNE
Cosmos 2346 Rocket 4.5 23:05:27 10° S 23:11:40 66° E 23:17:51 10° NNE
Meteor 2-15 Rocket 4.4 23:05:46 10° N 23:11:48 76° E 23:17:53 10° S
SL-16 R/B 2.3 23:06:21 10° SSW 23:12:00 81° WNW 23:17:38 10° NNE
ARIANE 2 DEBRIS 3.1 23:11:08 10° W 23:14:18 51° S 23:16:35 20° ESE
SEDSat Delta rocket 4.0 23:09:17 10° NW 23:14:27 43° NNE 23:17:34 19° E
Cosmos 2233 Rocket 4.3 23:10:34 10° NNE 23:16:29 44° E 23:22:24 10° SSE
YAOGAN 1 3.0 23:17:59 16° SE 23:21:01 41° ENE 23:25:02 10° N
ARIANE 44LP R/B 4.3 23:16:48 10° W 23:21:17 88° S 23:54:15 10° E
Meteor 2-2 Rocket 4.5 23:15:37 10° S 23:21:25 52° E 23:27:13 10° NNE
Cosmos 1933 3.9 23:20:50 17° SSE 23:23:22 34° E 23:26:56 10° NNE
ARIANE 5 R/B 4.3 19:18:56 10° W 23:25:03 86° S 23:31:36 20° E
IGS 5A 3.8 23:23:07 10° S 23:27:10 65° W 23:31:11 10° NNW
OAO 3 Rocket 3.5 23:23:25 10° WSW 23:28:05 66° NW 23:32:47 10° NE
CZ-4B R/B 3.5 23:25:57 19° SE 23:29:06 48° ENE 23:33:39 10° N
PAYLOAD A 3.6 23:27:29 10° WSW 23:31:12 48° S 23:33:00 29° ESE
ADEOS 4.1 23:29:13 24° SE 23:31:40 39° ENE 23:36:27 10° N
Ariane H10+ 2.8 23:33:44 10° WSW 23:36:30 48° S 23:37:59 33° ESE
GPS 2-15 Rocket1 4.4 23:32:43 10° W 23:37:01 31° SSW 23:38:48 24° SSE
Cosmos 1602 3.4 23:33:44 10° N 23:37:15 62° E 23:38:04 46° SE
Cosmos 1953 Rocket 3.4 23:33:59 10° N 23:38:23 79° E 23:41:31 19° S
Landsat 7 3.7 23:37:42 26° SSE 23:40:19 64° ENE 23:44:57 10° N
BREEZE-M DEB (TANK) 4.4 23:25:35 10° SW 23:41:24 77° SE 23:45:08 14° NE
Milstar 3 3.1 23:34:45 10° WNW 23:41:35 86° SSW 23:47:11 28° ESE
DELTA 2 DEB (DPAF) 4.1 23:37:37 10° NNE 23:41:42 50° ESE 23:42:54 38° SSE
Cosmos 1666 4.1 23:41:40 10° NNW 23:44:45 33° W 23:47:52 10° SSW
Cosmos 1782 3.1 23:41:40 10° SSW 23:45:26 63° W 23:49:10 10° N
CZ-4 R/B 3.8 23:49:13 10° NNE 23:49:13 10° NNE 23:49:15 10° NNE
Cosmos 1943 3.2 23:44:20 10° S 23:49:54 54° ESE 23:55:25 10° NNE
Cosmos 2151 3.0 23:45:52 10° N 23:49:59 74° W 23:52:10 27° S
Cosmos 921 Rocket 2.9 23:50:35 10° S 23:54:59 83° E 23:59:25 10° NNE
